www.pogodaiklimat.ru

Погода и климат >> Архив погоды >> Россия >> Чукотка >> Баимка


ПОГОДА в Баимке

  • Прогноз погоды в Баимке
  • Монитор погоды в Баимке
  • Климат города

АРХИВ ПОГОДЫ в Баимке

Время (UTC), дата Ветер
(напр.,м/с)
 
Видим.   Явления Облачность Т
(С)
Тd
(С)
f
(%)
Тe
(С)
Тes
(С)
Комфортность P
(гПа)
Po
(гПа)
Тmin
(С)
Tmax
(С)
R
(мм)
R24
(мм)
S
(см)
18 11.12 ЮВ 2
{2}
4000 м снежные кристаллы 10/0
[Ac As]
-32.7 -36.4 69 -41 -41 опасность
обморожения
1022.2 981.4
21 11.12 Ю 2
{3}
4000 м снежные кристаллы 10/0
[Ac As]
-31.8 -35.4 70 -40 -40 опасность
обморожения
1022.0 981.4 -33.0 0.3 39
00 12.12 ЮВ 1
{2}
4000 м снежные кристаллы 8/3 600 м
[Sc Ac trans Ci fib]
-33.4 -36.9 71 -38 -38 опасность
обморожения
1022.2 981.4 -33.4
03 12.12 Ю 2
{3}
20 км {снег} 9/3 600 м
[Sc Ac trans Ci fib]
-32.0 -35.7 70 -40 -40 опасность
обморожения
1021.5 981.9
06 12.12 ЮВ 2
{3}
20 км {снег} 10/3 600 м
[Sc Ac und]
-30.6 -34.3 70 -38 -38 опасность
обморожения
1021.2 980.8
09 12.12 С 1
{3}
20 км 10/0
[Ac und]
-29.9 -33.7 69 -34 -34 опасность
обморожения
1021.0 980.7 -28.9 0.0
12 12.12 штиль 0
{3}
4000 м слабый снег 10/0
[As op]
-29.6 -33.3 70 -30 -30 1020.4 980.3
15 12.12 С 1
{2}
4000 м слабый снег 10/0
[As op]
-29.7 -33.5 69 -34 -34 опасность
обморожения
1019.9 979.8
18 12.12 штиль 0
{1}
4000 м слабый снег 10/0
[As op]
-29.2 -32.9 70 -29 -29 1019.7 979.7
21 12.12 штиль 0
{1}
20 км {снег} 1/0
[Ci fib]
-36.2 -39.7 70 -36 -36 опасность
обморожения
1020.9 979.7 -36.2 0.5 40
00 13.12 ЮВ 1
{2}
20 км {снег} 1/0
[Ci fib]
-38.5 -42.0 69 -44 -44 опасность
обморожения
1020.8 979.1 -38.5
03 13.12 штиль 0
{2}
20 км 8/0
[Ci fib]
-39.2 -43.1 66 -39 -39 опасность
обморожения
1020.3 978.6
06 13.12 штиль 0
{2}
20 км 3/0
[Ci fib]
-40.1 -44.1 65 -40 -40 опасность
обморожения
1019.9 978.0
09 13.12 штиль 0
{1}
20 км ясно -41.0 -45.1 64 -41 -41 опасность
обморожения
1020.1 978.0 -36.2
12 13.12 штиль 0
{1}
20 км ясно -41.4 -45.6 64 -41 -41 опасность
обморожения
1019.9 977.8
15 13.12 штиль 0
{1}
20 км ясно -41.8 -45.6 66 -42 -42 опасность
обморожения
1019.2 977.1
18 13.12 ЮВ 1
{1}
20 км ясно -42.3 -46.1 66 -48 -48 опасность
обморожения
1018.9 976.8
21 13.12 штиль 0
{2}
20 км ясно -42.5 -46.1 68 -43 -43 опасность
обморожения
1019.1 976.8 -42.6 40
00 14.12 штиль 0
{1}
20 км 1/0
[Ci fib]
-42.7 -46.8 64 -43 -43 опасность
обморожения
1018.7 976.4 -42.8
03 14.12 ЮВ 1
{2}
20 км ясно -42.6 -46.8 63 -48 -48 опасность
обморожения
1018.1 975.8
06 14.12 штиль 0
{2}
20 км ясно -43.1 -46.8 67 -43 -43 опасность
обморожения
1017.7 975.4
09 14.12 штиль 0
{1}
20 км ясно -43.4 -47.4 64 -43 -43 опасность
обморожения
1017.7 975.4 -42.2
12 14.12 штиль 0
{1}
20 км ясно -43.7 -47.4 67 -44 -44 опасность
обморожения
1017.6 975.1
15 14.12 штиль 0
{1}
20 км ясно -43.7 -47.4 67 -44 -44 опасность
обморожения
1016.7 974.3
18 14.12 штиль 0
{1}
20 км ясно -43.7 -47.4 67 -44 -44 опасность
обморожения
1016.6 974.2
21 14.12 ЮВ 1
{1}
20 км ясно -43.8 -47.4 67 -49 -49 опасность
обморожения
1017.0 974.5 -44.1 40
00 15.12 штиль 0
{1}
20 км 3/0
[Ac trans]
-43.7 -47.4 67 -44 -44 опасность
обморожения
1016.4 974.0
03 15.12 ЮВ 1
{1}
20 км 3/0
[Ac trans]
-43.2 -47.4 63 -49 -49 опасность
обморожения
1015.7 973.5
06 15.12 штиль 0
{1}
20 км 1/0
[Ac trans]
-43.3 -47.4 64 -43 -43 опасность
обморожения
1015.7 973.5
09 15.12 штиль 0
{1}
20 км ясно -43.5 -47.4 65 -44 -44 опасность
обморожения
1015.9 973.5 -43.0
12 15.12 штиль 0
{1}
20 км ясно -43.1 -46.8 67 -43 -43 опасность
обморожения
1015.9 973.7
15 15.12 штиль 0
{1}
20 км 3/0
[Ci fib]
-39.1 -43.1 66 -39 -39 опасность
обморожения
1014.7 973.3
18 15.12 Ю 1
{1}
20 км 1/0
[Ci fib]
-41.1 -45.1 65 -46 -46 опасность
обморожения
1014.8 973.0
21 15.12 штиль 0
{2}
20 км 10/0
[Ac und]
-34.3 -39.3 60 -34 -34 опасность
обморожения
1013.8 973.2 -43.5 40
00 16.12 С 1
{2}
20 км 10/10 1000 м
[Sc]
-31.4 -35.0 70 -36 -36 опасность
обморожения
1012.5 972.4
03 16.12 С 1
{2}
20 км 10/10
[Sc]
-29.6 -33.3 70 -34 -34 опасность
обморожения
1011.5 971.6
06 16.12 штиль 0
{1}
20 км 10/10 1000 м
[Sc]
-27.6 -31.3 71 -28 -28 1010.2 970.8
09 16.12 штиль 0
{1}
20 км 4/3 1000 м
[Sc Ci fib]
-32.5 -36.1 70 -33 -33 опасность
обморожения
1010.9 970.6 -26.9
12 16.12 штиль 0
{2}
20 км 9/9 1000 м
[Sc]
-27.9 -30.9 75 -28 -28 1009.2 969.8
15 16.12 штиль 0
{2}
4000 м слабый снег 10/10 600 м
[Sc]
-26.9 -30.0 75 -27 -27 1008.2 968.9
18 16.12 штиль 0
{2}
20 км в посл. час снег 8/8 600 м
[Sc]
-32.2 -35.9 69 -32 -32 опасность
обморожения
1009.5 969.4
21 16.12 штиль 0
{2}
20 км 3/3 600 м
[Sc]
-35.6 -39.0 71 -36 -36 опасность
обморожения
1011.1 970.3 -35.7 0.7 40
00 17.12 штиль 0
{2}
20 км в посл. час снег 10/3 600 м
[Sc As trans]
-32.3 -35.9 70 -32 -32 опасность
обморожения
1011.1 971.0 -36.2
03 17.12 ЮВ 1
{2}
20 км 10/5 600 м
[Sc Ac trans Ci fib]
-35.8 -39.3 70 -41 -41 опасность
обморожения
1013.0 972.1
06 17.12 Ю 1
{2}
20 км 6/0
[Ac trans]
-37.2 -40.7 70 -42 -42 опасность
обморожения
1014.2 973.1
09 17.12 ЮВ 2
{3}
20 км 8/0
[Ac trans]
-36.1 -39.7 69 -45 -45 опасность
обморожения
1014.9 974.0 -31.4 0.3
12 17.12 ЮВ 1
{3}
20 км 4/0
[Ci fib]
-38.2 -42.3 65 -43 -43 опасность
обморожения
1016.0 974.6
15 17.12 ЮВ 2
{3}
20 км ясно -39.8 -44.1 63 -49 -49 опасность
обморожения
1016.4 974.6
18 17.12 штиль 0
{2}
20 км ясно -41.4 -45.6 64 -41 -41 опасность
обморожения
1017.0 975.1
21 17.12 штиль 0
{2}
20 км ясно -42.3 -46.1 66 -42 -42 опасность
обморожения
1017.6 975.5 -42.6 40
00 18.12 штиль 0
{1}
20 км ясно -42.7 -46.8 64 -43 -43 опасность
обморожения
1018.2 975.9 -43.0
03 18.12 штиль 0
{1}
20 км ясно -42.7 -46.8 64 -43 -43 опасность
обморожения
1017.8 975.5
06 18.12 штиль 0
{1}
20 км ясно -43.2 -47.4 63 -43 -43 опасность
обморожения
1017.9 975.6
09 18.12 штиль 0
{1}
20 км ясно -43.2 -47.4 63 -43 -43 опасность
обморожения
1017.9 975.6 -42.3
12 18.12 ЮВ 1
{1}
20 км ясно -43.5 -47.4 65 -49 -49 опасность
обморожения
1018.0 975.5

 

Местоположение метеостанции Баимка (Чукотка, Россия): широта 66.53 долгота 164.20 высота над уровнем моря 287 м.

В архиве по умолчанию представлена погода в Баимке за последнюю неделю. Архивные данные за месяц целиком и за предыдущие месяцы, начиная с января 2011 года, Вы можете получить, выбрав интересующий диапазон дат из раскрывающегося списка и нажав кнопку "Ввод!".


*Определитесь, кто Вы:
робот инопланетянин человек

Внимание! Время в таблицах - всемирное. Для получения местного времени необходимо прибавить поправку, которая в Баимке равна 12 ч.

Смотрите также архив погоды в соседних городах и на ближайших метеорологических станциях:

Погода на Островном (Чукотка, Россия) (177 км)
Погода в Илирнее (Чукотка, Россия) (180 км)
Погода в Билибино (Чукотка, Россия) (194 км)
Погода в Омолоне (Чукотка, Россия) (222 км)
Погода в Константиновской (Чукотка, Россия) (224 км)
Погода в Анюйске (Чукотка, Россия) (233 км)
Погода в Верхне-Пенжино (Камчатский край, Россия) (257 км)
Погода в Черском (Якутия, Россия) (274 км)
Погода в Кегали (Магаданская область, Россия) (294 км)
Погода в Колымской (Якутия, Россия) (340 км)

Пояснения к столбцам:

Ветер - указаны скорость ветра в м/с - средняя за 10 мин, порывы в срок и между сроками (в фигурных скобках) и направление, откуда дует ветер: С - северный, СВ - северо-восточный, В - восточный, ЮВ - юго-восточный, Ю - южный, ЮЗ - юго-западный, З - западный, СЗ - северо-западный.
Видимость - горизонтальная дальность видимости в метрах или километрах. При видимости от 1 до 10 км при отсутствии осадков обычно наблюдается дымка, при ухудшении видимости до 1 км и менее - туман. В сухую погоду видимость может ухудшаться дымом, пылью или мглою.
Явления - указаны атмосферные явления, наблюдавшиеся в срок или в последний час перед сроком; фигурными скобками обозначены явления, наблюдавшиеся между сроками (за 1-3 часа до срока); квадратными скобками обозначены град или гололедные отложения с указанием их диаметра в мм.
Облачность - указаны через наклонную черту общая и нижняя облачность в баллах и высота нижней границы облаков в метрах; квадратными скобками обозначены формы облаков: Ci - перистые, Cs - перисто-слоистые, Cc - перисто-кучевые, Ac - высококучевые, As - высокослоистые, Sc - слоисто-кучевые, Ns - слоисто-дождевые, Cu - кучевые, Cb - кучево-дождевые. Подробнее классификацию облаков см. в Атласе облаков (PDF).
T - Температура воздуха - температура, измеренная на высоте 2 м над землей.
Td - Температура точки росы - температура, при понижении до которой содержащийся в воздухе водяной пар достигнет насыщения.
f - Относительная влажность воздуха - влажноcть воздуха, измеренная на высоте 2 м над землей.
Te - Эффективная температура - температура, которую ощущает одетый по сезону человек в тени. Характеристика душности погоды. При расчете учитывается влияние влажности воздуха и скорости ветра на теплоощущения человека.
Tes - Эффективная температура на солнце - температура, которую ощущает человек, с поправкой на солнечный нагрев. Характеристика знойности погоды. Зависит от высоты солнца над горизонтом, облачности и скорости ветра. Ночью, в пасмурную погоду, а также при ветре 12 м/с и более поправка равна нулю.
P - Атмосферное давление - приведенное к уровню моря атмосферное давление.
Po - Атмосферное давление - измеренное на уровне метеостанции атмосферное давление.
Tmin - Минимальная температура - минимум температуры воздуха на высоте 2 м над землей.
Tmax - Максимальная температура - максимум температуры воздуха на высоте 2 м над землей.
R - Количество осадков - Количество выпавших осадков за период времени, мм. При наведении курсора мыши на число - период времени, за который выпало указанное количество осадков.
R24 - Количество осадков - Количество выпавших осадков за 24 часа, мм.
S - Снежный покров - Высота снежного покрова, см. При наведении курсора мыши на число - состояние снежного покрова и степень покрытия местности в баллах.